TimeEDT,TemperatureF,Dew PointF,Humidity,Sea Level PressureIn,VisibilityMPH,Wind Direction,Wind SpeedMPH,Gust SpeedMPH,PrecipitationIn,Events,Conditions,WindDirDegrees,DateUTC
12:53 AM,69.1,61.0,75,30.01,10.0,NE,6.9,-,N/A,,Overcast,40,2013-03-20 04:53:00
1:53 AM,66.9,62.1,84,29.99,10.0,NE,4.6,-,N/A,,Clear,50,2013-03-20 05:53:00
2:53 AM,68.0,63.0,84,29.98,10.0,NNE,8.1,-,N/A,,Overcast,20,2013-03-20 06:53:00
3:53 AM,68.0,63.0,84,29.96,10.0,NNE,8.1,-,N/A,,Partly Cloudy,30,2013-03-20 07:53:00
4:53 AM,66.9,60.1,79,29.95,10.0,NE,6.9,-,N/A,,Mostly Cloudy,50,2013-03-20 08:53:00
5:53 AM,64.9,60.1,84,29.94,10.0,NE,5.8,-,N/A,,Clear,50,2013-03-20 09:53:00
6:53 AM,64.9,57.9,78,29.96,10.0,NE,5.8,-,N/A,,Clear,50,2013-03-20 10:53:00
7:53 AM,66.0,57.0,73,29.96,10.0,East,6.9,-,N/A,,Overcast,90,2013-03-20 11:53:00
8:53 AM,66.9,59.0,76,29.95,10.0,East,9.2,-,N/A,,Overcast,90,2013-03-20 12:53:00
9:04 AM,66.2,60.8,83,29.96,10.0,NNW,4.6,-,N/A,Thunderstorm,Thunderstorm,340,2013-03-20 13:04:00
9:11 AM,66.2,60.8,83,29.99,4.0,West,13.8,-,N/A,Rain-Thunderstorm,Thunderstorms and Rain,280,2013-03-20 13:11:00
9:16 AM,64.4,60.8,88,29.98,1.0,NNE,9.2,-,N/A,Rain-Thunderstorm,Heavy Thunderstorms and Rain,20,2013-03-20 13:16:00
9:28 AM,64.4,62.6,94,29.99,3.0,West,17.3,21.9,N/A,Rain-Thunderstorm,Thunderstorms and Rain,280,2013-03-20 13:28:00
9:53 AM,64.9,62.1,90,29.99,10.0,NNE,6.9,-,N/A,Rain-Thunderstorm,Light Thunderstorms and Rain,30,2013-03-20 13:53:00
10:53 AM,68.0,64.0,87,29.98,10.0,East,8.1,-,0.00,,Scattered Clouds,80,2013-03-20 14:53:00
11:53 AM,72.0,64.9,78,29.98,10.0,ESE,6.9,-,N/A,,Overcast,110,2013-03-20 15:53:00
12:19 PM,71.6,64.4,78,29.97,10.0,SE,3.5,-,N/A,,Overcast,140,2013-03-20 16:19:00
12:53 PM,73.0,64.9,76,29.94,10.0,SE,5.8,-,N/A,,Scattered Clouds,140,2013-03-20 16:53:00
1:01 PM,73.4,64.4,73,29.92,10.0,SSE,6.9,-,N/A,,Mostly Cloudy,150,2013-03-20 17:01:00
1:41 PM,73.4,64.4,73,29.90,10.0,Calm,Calm,-,N/A,,Scattered Clouds,0,2013-03-20 17:41:00
1:53 PM,73.9,64.9,73,29.90,10.0,South,4.6,-,N/A,,Partly Cloudy,180,2013-03-20 17:53:00
2:53 PM,75.0,64.0,69,29.89,10.0,WSW,8.1,-,N/A,,Scattered Clouds,250,2013-03-20 18:53:00
3:07 PM,75.2,64.4,69,29.86,10.0,West,6.9,-,N/A,,Mostly Cloudy,270,2013-03-20 19:07:00
3:53 PM,75.0,62.1,64,29.85,10.0,West,9.2,-,N/A,,Mostly Cloudy,270,2013-03-20 19:53:00
4:00 PM,75.2,62.6,65,29.83,10.0,WNW,5.8,-,N/A,,Clear,300,2013-03-20 20:00:00
4:53 PM,75.9,61.0,60,29.82,10.0,West,6.9,-,N/A,,Partly Cloudy,270,2013-03-20 20:53:00
5:53 PM,75.0,62.1,64,29.82,10.0,NW,5.8,-,N/A,,Scattered Clouds,320,2013-03-20 21:53:00
6:53 PM,73.9,62.1,66,29.83,10.0,WSW,9.2,-,N/A,,Mostly Cloudy,250,2013-03-20 22:53:00
7:53 PM,70.0,61.0,73,29.88,10.0,WNW,9.2,-,N/A,,Overcast,300,2013-03-20 23:53:00
8:53 PM,62.1,57.0,84,29.92,10.0,North,18.4,25.3,N/A,,Overcast,350,2013-03-21 00:53:00
9:16 PM,62.6,57.2,82,29.91,10.0,NNW,10.4,-,N/A,,Overcast,340,2013-03-21 01:16:00
9:53 PM,61.0,57.0,87,29.89,10.0,NNW,4.6,-,0.00,,Mostly Cloudy,340,2013-03-21 01:53:00
10:53 PM,61.0,55.9,83,29.86,10.0,Calm,Calm,-,N/A,,Overcast,0,2013-03-21 02:53:00
11:53 PM,60.1,55.9,86,29.90,10.0,West,5.8,-,N/A,,Clear,260,2013-03-21 03:53:00